| time (UTC) | temp F | wind direction | speed MPH | gust MPH | rain 1hr in | rain 24hr in | rain mn in | humidity % | barometer mb |
| 20260903040037 | 70 | 132 | 1.0 | 4.0 | 0.00 | 0.24 | 0.24 | 91 | 1010.5 |
| 20260903034536 | 71 | 133 | 2.0 | 4.0 | 0.00 | 0.24 | 0.24 | 91 | 1010.6 |
| 20260903033036 | 71 | 132 | 2.0 | 4.0 | 0.00 | 0.24 | 0.24 | 90 | 1010.7 |
| 20260903031535 | 71 | 132 | 0.0 | 3.0 | 0.00 | 0.24 | 0.24 | 90 | 1010.7 |
| 20260903030041 | 72 | 132 | 1.0 | 3.0 | 0.00 | 0.24 | 0.24 | 89 | 1010.6 |
| 20260903024541 | 72 | 131 | 2.0 | 5.0 | 0.00 | 0.24 | 0.24 | 89 | 1010.7 |
| 20260903023034 | 73 | 132 | 2.0 | 4.0 | 0.00 | 0.24 | 0.24 | 88 | 1010.6 |
| 20260903021536 | 73 | 130 | 1.0 | 3.0 | 0.00 | 0.24 | 0.24 | 88 | 1010.5 |
| 20260903020035 | 73 | 130 | 2.0 | 5.0 | 0.00 | 0.24 | 0.24 | 89 | 1010.4 |
| 20260903014533 | 74 | 70 | 2.0 | 4.0 | 0.00 | 0.24 | 0.24 | 88 | 1010.3 |
| 20260903013032 | 74 | 34 | 0.0 | 2.0 | 0.00 | 0.24 | 0.24 | 87 | 1010.1 |
| 20260903011540 | 74 | 32 | 0.0 | 1.0 | 0.00 | 0.24 | 0.24 | 87 | 1009.9 |
| 20260903010031 | 75 | 29 | 0.0 | 2.0 | 0.00 | 0.24 | 0.24 | 84 | 1009.8 |
| 20260903004532 | 76 | 346 | 0.0 | 0.0 | 0.00 | 0.24 | 0.24 | 82 | 1009.6 |
| 20260903003030 | 79 | 346 | 0.0 | 0.0 | 0.00 | 0.24 | 0.24 | 76 | 1009.7 |
| 20260903001530 | 82 | 346 | 0.0 | 0.0 | 0.00 | 0.24 | 0.24 | 71 | 1009.8 |
| 20260903000029 | 83 | 346 | 0.0 | 0.0 | 0.00 | 0.24 | 0.24 | 69 | 1009.8 |
| 20260902234528 | 85 | 346 | 0.0 | 0.0 | 0.00 | 0.24 | 0.24 | 67 | 1009.7 |
| 20260902233035 | 85 | 346 | 0.0 | 0.0 | 0.00 | 0.24 | 0.24 | 67 | 1009.8 |
| 20260902231526 | 84 | 346 | 0.0 | 0.0 | 0.00 | 0.24 | 0.24 | 66 | 1009.7 |
| 20260902230026 | 84 | 346 | 0.0 | 0.0 | 0.00 | 0.24 | 0.24 | 65 | 1009.6 |
| 20260902224524 | 84 | 350 | 0.0 | 0.0 | 0.00 | 0.24 | 0.24 | 65 | 1009.7 |
| 20260902223024 | 84 | 355 | 0.0 | 0.0 | 0.00 | 0.24 | 0.24 | 66 | 1009.7 |
| 20260902221523 | 84 | 355 | 0.0 | 3.0 | 0.00 | 0.24 | 0.24 | 65 | 1009.8 |
| 20260902220029 | 84 | 34 | 0.0 | 3.0 | 0.00 | 0.24 | 0.24 | 64 | 1009.8 |
| 20260902214520 | 84 | 35 | 0.0 | 2.0 | 0.00 | 0.24 | 0.24 | 65 | 1010.0 |
| 20260902213017 | 83 | 34 | 0.0 | 3.0 | 0.00 | 0.24 | 0.24 | 69 | 1010.0 |
| 20260902211513 | 82 | 5 | 0.0 | 2.0 | 0.00 | 0.24 | 0.24 | 71 | 1010.2 |
| 20260902210012 | 81 | 80 | 0.0 | 4.0 | 0.00 | 0.24 | 0.24 | 71 | 1010.2 |
| 20260902204520 | 81 | 38 | 0.0 | 5.0 | 0.00 | 0.24 | 0.24 | 71 | 1010.4 |
| 20260902203011 | 81 | 28 | 0.0 | 3.0 | 0.00 | 0.24 | 0.24 | 70 | 1010.4 |
| 20260902201522 | 81 | 313 | 1.0 | 4.0 | 0.00 | 0.24 | 0.24 | 70 | 1010.6 |
| 20260902200011 | 81 | 305 | 1.0 | 3.0 | 0.00 | 0.24 | 0.24 | 71 | 1010.6 |
| 20260902194511 | 81 | 321 | 1.0 | 3.0 | 0.00 | 0.24 | 0.24 | 69 | 1010.6 |
| 20260902193008 | 81 | 273 | 0.0 | 4.0 | 0.00 | 0.24 | 0.24 | 68 | 1010.6 |
| 20260902191513 | 81 | 196 | 0.0 | 1.0 | 0.00 | 0.24 | 0.24 | 68 | 1010.5 |
| 20260902190002 | 81 | 197 | 0.0 | 4.0 | 0.00 | 0.24 | 0.24 | 69 | 1010.5 |
| 20260902184600 | 80 | 298 | 0.0 | 5.0 | 0.00 | 0.24 | 0.24 | 72 | 1010.6 |
| 20260902183057 | 79 | 77 | 0.0 | 2.0 | 0.00 | 0.24 | 0.24 | 74 | 1010.8 |
| 20260902181610 | 79 | 275 | 1.0 | 4.0 | 0.00 | 0.24 | 0.24 | 72 | 1011.0 |
| 20260902180059 | 78 | 290 | 0.0 | 3.0 | 0.00 | 0.24 | 0.24 | 75 | 1011.1 |
| 20260902174549 | 77 | 257 | 0.0 | 2.0 | 0.00 | 0.24 | 0.24 | 75 | 1010.9 |
| 20260902173048 | 75 | 259 | 0.0 | 4.0 | 0.00 | 0.24 | 0.24 | 77 | 1011.3 |
| 20260902171554 | 75 | 294 | 1.0 | 5.0 | 0.00 | 0.24 | 0.24 | 80 | 1011.4 |
| 20260902170046 | 73 | 291 | 0.0 | 0.0 | 0.00 | 0.24 | 0.24 | 83 | 1011.2 |
| 20260902164555 | 72 | 57 | 0.0 | 2.0 | 0.00 | 0.24 | 0.24 | 86 | 1011.5 |
| 20260902163048 | 70 | 59 | 0.0 | 2.0 | 0.00 | 0.24 | 0.24 | 90 | 1011.5 |
| 20260902161557 | 70 | 56 | 0.0 | 0.0 | 0.00 | 0.24 | 0.24 | 94 | 1011.4 |
| 20260902160044 | 69 | 56 | 0.0 | 0.0 | 0.00 | 0.24 | 0.24 | 94 | 1011.5 |
| 20260902154600 | 68 | 56 | 0.0 | 0.0 | 0.00 | 0.24 | 0.24 | 94 | 1011.3 |
| 20260902153046 | 68 | 56 | 0.0 | 1.0 | 0.00 | 0.24 | 0.24 | 95 | 1011.4 |
| 20260902151542 | 67 | 55 | 0.0 | 0.0 | 0.00 | 0.24 | 0.24 | 96 | 1011.4 |
| 20260902150041 | 67 | 55 | 0.0 | 0.0 | 0.00 | 0.24 | 0.24 | 96 | 1011.0 |
| 20260902144547 | 67 | 55 | 0.0 | 0.0 | 0.00 | 0.24 | 0.24 | 96 | 1011.4 |
| 20260902143040 | 66 | 56 | 0.0 | 3.0 | 0.00 | 0.24 | 0.24 | 96 | 1011.0 |
| 20260902141538 | 66 | 44 | 0.0 | 2.0 | 0.00 | 0.24 | 0.24 | 96 | 1011.2 |
| 20260902140041 | 66 | 271 | 1.0 | 4.0 | 0.00 | 0.24 | 0.24 | 96 | 1012.5 |
| 20260902134538 | 66 | 131 | 0.0 | 0.0 | 0.00 | 0.24 | 0.24 | 96 | 1012.4 |
| 20260902133040 | 65 | 130 | 0.0 | 1.0 | 0.00 | 0.24 | 0.24 | 96 | 1012.0 |
| 20260902131541 | 65 | 130 | 0.0 | 2.0 | 0.00 | 0.24 | 0.24 | 96 | 1012.2 |
| 20260902130035 | 65 | 130 | 0.0 | 0.0 | 0.00 | 0.24 | 0.24 | 95 | 1011.9 |
| 20260902124535 | 65 | 131 | 0.0 | 2.0 | 0.00 | 0.24 | 0.24 | 96 | 1011.4 |
| 20260902123035 | 65 | 130 | 0.0 | 3.0 | 0.00 | 0.24 | 0.24 | 96 | 1010.9 |
| 20260902121531 | 65 | 130 | 1.0 | 4.0 | 0.00 | 0.24 | 0.24 | 96 | 1011.3 |
| 20260902120030 | 64 | 129 | 0.0 | 4.0 | 0.00 | 0.24 | 0.24 | 95 | 1011.5 |
| 20260902114528 | 64 | 127 | 1.0 | 3.0 | 0.00 | 0.24 | 0.24 | 95 | 1011.2 |
| 20260902113027 | 64 | 120 | 0.0 | 3.0 | 0.02 | 0.24 | 0.24 | 95 | 1011.7 |
| 20260902111526 | 64 | 94 | 0.0 | 1.0 | 0.10 | 0.24 | 0.24 | 95 | 1012.0 |
| 20260902110025 | 64 | 91 | 0.0 | 3.0 | 0.24 | 0.24 | 0.24 | 94 | 1012.4 |
| 20260902104523 | 65 | 80 | 0.0 | 3.0 | 0.24 | 0.24 | 0.24 | 93 | 1012.8 |
| 20260902103034 | 65 | 323 | 0.0 | 4.0 | 0.21 | 0.21 | 0.21 | 92 | 1014.3 |
| 20260902101525 | 67 | 5 | 8.0 | 28.0 | 0.13 | 0.13 | 0.13 | 89 | 1014.6 |
| 20260902100013 | 71 | 333 | 0.0 | 2.0 | 0.00 | 0.00 | 0.00 | 93 | 1011.1 |
| 20260902094511 | 71 | 198 | 0.0 | 0.0 | 0.00 | 0.00 | 0.00 | 92 | 1010.3 |
| 20260902093010 | 71 | 198 | 0.0 | 0.0 | 0.00 | 0.00 | 0.00 | 92 | 1009.6 |
| 20260902091506 | 72 | 267 | 0.0 | 0.0 | 0.00 | 0.00 | 0.00 | 91 | 1010.1 |
| 20260902090006 | 72 | 267 | 0.0 | 1.0 | 0.00 | 0.00 | 0.00 | 91 | 1010.7 |
| 20260902084504 | 73 | 259 | 0.0 | 1.0 | 0.00 | 0.00 | 0.00 | 91 | 1011.2 |
| 20260902083003 | 73 | 265 | 0.0 | 3.0 | 0.00 | 0.00 | 0.00 | 91 | 1011.3 |
| 20260902081502 | 74 | 189 | 0.0 | 1.0 | 0.00 | 0.00 | 0.00 | 90 | 1010.6 |
| 20260902080002 | 74 | 190 | 0.0 | 1.0 | 0.00 | 0.00 | 0.00 | 89 | 1010.9 |
| 20260902074601 | 74 | 190 | 0.0 | 2.0 | 0.00 | 0.00 | 0.00 | 90 | 1010.5 |
| 20260902073100 | 73 | 191 | 0.0 | 2.0 | 0.00 | 0.00 | 0.00 | 90 | 1010.9 |
| 20260902071604 | 73 | 190 | 0.0 | 0.0 | 0.00 | 0.00 | 0.00 | 90 | 1010.7 |
| 20260902070057 | 73 | 190 | 0.0 | 0.0 | 0.00 | 0.00 | 0.00 | 89 | 1010.6 |
| 20260902064614 | 73 | 190 | 0.0 | 0.0 | 0.00 | 0.00 | 0.00 | 89 | 1010.4 |
| 20260902063058 | 73 | 191 | 0.0 | 0.0 | 0.00 | 0.00 | 0.00 | 90 | 1010.5 |
| 20260902061554 | 72 | 191 | 0.0 | 0.0 | 0.00 | 0.00 | 0.00 | 89 | 1010.9 |
| 20260902060106 | 73 | 191 | 0.0 | 0.0 | 0.00 | 0.00 | 0.00 | 88 | 1010.8 |
| 20260902054550 | 74 | 191 | 0.0 | 0.0 | 0.00 | 0.00 | 0.00 | 87 | 1010.6 |
| 20260902053049 | 74 | 191 | 0.0 | 0.0 | 0.00 | 0.00 | 0.00 | 86 | 1010.7 |
| 20260902051545 | 76 | 191 | 0.0 | 0.0 | 0.00 | 0.00 | 0.00 | 84 | 1010.6 |
| 20260902050101 | 77 | 191 | 0.0 | 0.0 | 0.00 | 0.00 | 0.00 | 84 | 1010.2 |
| 20260902044556 | 77 | 191 | 0.0 | 0.0 | 0.00 | 0.00 | 0.00 | 85 | 1010.4 |
| 20260902043039 | 78 | 191 | 0.0 | 0.0 | 0.00 | 0.00 | 0.00 | 86 | 1010.6 |
| 20260902041539 | 78 | 190 | 0.0 | 0.0 | 0.00 | 0.00 | 0.00 | 86 | 1010.5 |